Columbia, MO

11:31 PM CST on February 19, 2017 (GMT -0600)
Columbia Regional

Weather History for KCOU - April, 2013

Change the Weather History Date:

Saturday, April 27, 2013

  Actual Average Record
Temperature  
Mean Temperature 50 °F 59 °F  
Max Temperature 52 °F 70 °F 90 °F (1896)
Min Temperature 47 °F 48 °F 30 °F (1967)
Degree Days  
Heating Degree Days 15 7  
Month to date heating degree days 357 299  
Since 1 July heating degree days 4754 4881  
Cooling Degree Days 0 1  
Month to date cooling degree days 12 20  
Year to date cooling degree days 13 23  
Moisture  
Dew Point 48 °F    
Average Humidity 93    
Maximum Humidity 96    
Minimum Humidity 89    
Precipitation  
Precipitation 0.26 in 0.17 in 2.15 in (2002)
Month to date precipitation 7.39 3.98  
Year to date precipitation 16.92 11.06  
Snow  
Snow 0.00 in 0.00 in 0.00 in (2015)
Month to date snowfall T 0.2  
Since 1 July snowfall 35.0 18.0  
Snow Depth 0.00 in    
Sea Level Pressure  
Sea Level Pressure 30.09 in    
Wind  
Wind Speed 8 mph (ENE)    
Max Wind Speed 12 mph    
Max Gust Speed 16 mph    
Visibility 6 miles    
Events Rain    
T = Trace of Precipitation, MM = Missing Value Source: NWS Daily Summary

Daily Weather History Graph

Daily Weather History Graph

Search for Another Location

Airport or City:

Trip Planner

Search our weather history database for the weather conditions in past years. The results will help you decide how hot, cold, wet, or windy it might be!

Date:

Astronomy

Apr. 27, 2013 Rise Set
Actual Time 6:15 AM CDT 7:57 PM CDT
Civil Twilight 5:47 AM CDT 8:26 PM CDT
Nautical Twilight 5:13 AM CDT 9:00 PM CDT
Astronomical Twilight 4:36 AM CDT 9:37 PM CDT
Moon 10:26 PM CDT (4/27) 7:35 AM CDT (4/27)
Length of Visible Light 14h 38m
Length of Day
13h 41m
Waning Gibbous, 95% of the Moon is Illuminated
Apr 27
Waning Gibbous
May 2
Last Quarter
May 9
New
May 17
First Quarter
May 24
Full

Hourly Weather History & Observations

Time (CDT) Temp. Dew Point Humidity Pressure Visibility Wind Dir Wind Speed Gust Speed Precip Events Conditions
12:54 AM 48.0 °F 46.0 °F 93% 30.26 in 5.0 mi SE 9.2 mph - 0.00 in Rain Light Rain
1:54 AM 48.0 °F 46.0 °F 93% 30.23 in 3.0 mi East 9.2 mph - 0.02 in Rain Light Rain
2:38 AM 48.0 °F 46.0 °F 93% 30.20 in 5.0 mi East 8.1 mph - 0.02 in Rain Rain
2:54 AM 48.0 °F 46.0 °F 93% 30.19 in 5.0 mi East 6.9 mph - 0.05 in Rain Light Rain
3:27 AM 48.0 °F 46.0 °F 93% 30.20 in 6.0 mi ESE 6.9 mph - 0.01 in Rain Light Rain
3:54 AM 48.0 °F 46.0 °F 93% 30.19 in 5.0 mi ESE 9.2 mph - 0.02 in   Overcast
4:18 AM 48.0 °F 46.0 °F 93% 30.18 in 4.0 mi ESE 9.2 mph - 0.00 in Rain Light Rain
4:54 AM 48.0 °F 46.0 °F 93% 30.17 in 9.0 mi ESE 10.4 mph - 0.01 in   Overcast
5:32 AM 48.0 °F 46.0 °F 93% 30.14 in 8.0 mi East 9.2 mph - 0.01 in Rain Light Rain
5:54 AM 48.0 °F 46.0 °F 93% 30.15 in 10.0 mi East 8.1 mph - 0.01 in   Overcast
6:29 AM 48.0 °F 46.0 °F 93% 30.15 in 8.0 mi ESE 6.9 mph - N/A   Overcast
6:50 AM 48.2 °F 46.4 °F 93% 30.14 in 2.0 mi East 9.2 mph - 0.00 in Rain Light Rain
6:54 AM 48.0 °F 46.0 °F 93% 30.15 in 2.0 mi East 9.2 mph - 0.01 in Rain Light Rain
7:07 AM 48.0 °F 46.0 °F 93% 30.14 in 3.0 mi East 9.2 mph - 0.00 in   Overcast
7:19 AM 48.0 °F 46.0 °F 93% 30.14 in 4.0 mi East 8.1 mph - 0.00 in   Overcast
7:54 AM 48.0 °F 46.0 °F 93% 30.15 in 6.0 mi East 9.2 mph - 0.00 in   Overcast
8:54 AM 48.9 °F 46.9 °F 93% 30.14 in 3.0 mi East 8.1 mph - N/A   Overcast
9:54 AM 48.9 °F 46.9 °F 93% 30.13 in 3.0 mi East 10.4 mph - 0.01 in Rain Light Rain
10:24 AM 48.9 °F 48.0 °F 97% 30.12 in 2.5 mi East 11.5 mph - 0.00 in   Overcast
10:35 AM 50.0 °F 48.0 °F 93% 30.12 in 4.0 mi East 10.4 mph - 0.00 in   Overcast
10:52 AM 50.0 °F 48.2 °F 94% 30.12 in 4.0 mi East 9.2 mph - 0.00 in   Overcast
10:54 AM 50.0 °F 48.0 °F 93% 30.13 in 4.0 mi East 8.1 mph - 0.00 in   Overcast
11:54 AM 50.0 °F 48.0 °F 93% 30.12 in 2.5 mi East 10.4 mph - N/A   Overcast
12:39 PM 51.1 °F 48.9 °F 92% 30.10 in 1.8 mi East 8.1 mph - N/A   Overcast
12:51 PM 51.8 °F 48.2 °F 88% 30.10 in 2.0 mi East 9.2 mph - N/A   Overcast
12:54 PM 51.1 °F 48.9 °F 92% 30.10 in 2.0 mi East 9.2 mph - N/A   Overcast
1:02 PM 51.1 °F 48.9 °F 92% 30.09 in 1.5 mi East 8.1 mph - N/A   Overcast
1:54 PM 51.1 °F 48.9 °F 92% 30.08 in 2.0 mi ENE 8.1 mph - 0.00 in   Overcast
2:17 PM 51.1 °F 50.0 °F 96% 30.07 in 4.0 mi ENE 6.9 mph - N/A   Overcast
2:54 PM 51.1 °F 48.9 °F 92% 30.07 in 6.0 mi NE 6.9 mph - 0.02 in Rain Light Rain
3:54 PM 51.1 °F 50.0 °F 96% 30.05 in 5.0 mi NNE 6.9 mph - 0.06 in Rain Light Rain
4:18 PM 52.0 °F 50.0 °F 93% 30.03 in 8.0 mi NE 6.9 mph - 0.01 in Rain Light Rain
4:54 PM 52.0 °F 50.0 °F 93% 30.03 in 10.0 mi NE 5.8 mph - 0.02 in Rain Light Rain
5:54 PM 52.0 °F 50.0 °F 93% 30.02 in 10.0 mi NNE 5.8 mph - 0.00 in Rain Light Rain
6:11 PM 51.1 °F 48.9 °F 92% 30.01 in 9.0 mi NNE 6.9 mph - 0.01 in Rain Light Rain
6:29 PM 52.0 °F 50.0 °F 93% 30.01 in 8.0 mi North 5.8 mph - 0.01 in Rain Light Rain
6:31 PM 52.0 °F 50.0 °F 93% 30.01 in 8.0 mi NNE 6.9 mph - 0.01 in Rain Light Rain
6:46 PM 52.0 °F 50.0 °F 93% 30.01 in 9.0 mi NNE 6.9 mph - 0.01 in   Overcast
6:54 PM 52.0 °F 50.0 °F 93% 30.01 in 8.0 mi NNE 6.9 mph - 0.01 in   Overcast
7:02 PM 51.1 °F 50.0 °F 96% 30.00 in 9.0 mi NNE 8.1 mph - N/A   Overcast
7:50 PM 51.8 °F 48.2 °F 88% 30.00 in 10.0 mi NNE 4.6 mph - N/A   Overcast
7:54 PM 51.1 °F 48.9 °F 92% 30.01 in 10.0 mi NNE 3.5 mph - N/A   Overcast
8:06 PM 51.1 °F 48.9 °F 92% 30.01 in 8.0 mi North 3.5 mph - N/A   Overcast
8:12 PM 51.1 °F 48.9 °F 92% 30.00 in 6.0 mi North 3.5 mph - N/A   Overcast
8:54 PM 51.1 °F 48.9 °F 92% 30.01 in 5.0 mi North 4.6 mph - 0.01 in Rain Light Rain
9:42 PM 50.0 °F 48.9 °F 96% 30.01 in 5.0 mi North 6.9 mph - 0.01 in   Overcast
9:54 PM 50.0 °F 48.9 °F 96% 30.01 in 6.0 mi NNW 5.8 mph - 0.01 in   Overcast
10:02 PM 50.0 °F 48.9 °F 96% 30.00 in 7.0 mi NNW 5.8 mph - N/A   Overcast
10:31 PM 50.0 °F 48.9 °F 96% 30.00 in 10.0 mi NNW 5.8 mph - N/A   Overcast
10:54 PM 50.0 °F 48.9 °F 96% 30.00 in 10.0 mi NNW 5.8 mph - N/A   Overcast
11:54 PM 50.0 °F 48.9 °F 96% 29.98 in 10.0 mi NNW 4.6 mph - N/A   Overcast